EW4939 Weather Reports


time (UTC)temp
C
wind
direction
speed
KPH
gust
KPH
rain 1hr
cm
rain 24hr
cm
rain mn
cm
humidity
%
barometer
mb
20260503184916 16 220 0.0 11.3 0.00 0.00 0.00 39 1017.0
20260503184413 16 176 4.8 9.7 0.00 0.00 0.00 36 1017.3
20260503183910 15 197 1.6 11.3 0.00 0.00 0.00 37 1017.4
20260503183406 15 186 3.2 12.9 0.00 0.00 0.00 38 1017.4
20260503182903 15 169 6.4 14.5 0.00 0.00 0.00 37 1017.6
20260503182403 15 179 3.2 4.8 0.00 0.00 0.00 39 1017.6
20260503181859 15 186 4.8 14.5 0.00 0.00 0.00 38 1017.5
20260503181356 15 202 3.2 3.2 0.00 0.00 0.00 36 1017.6
20260503180853 15 173 1.6 11.3 0.00 0.00 0.00 37 1017.7
20260503180351 16 137 3.2 9.7 0.00 0.00 0.00 38 1017.8
20260503175847 16 242 0.0 6.4 0.00 0.00 0.00 37 1017.7
20260503175345 16 201 1.6 6.4 0.00 0.00 0.00 34 1017.8
20260503174840 15 270 3.2 11.3 0.00 0.00 0.00 36 1017.8
20260503174339 15 182 1.6 6.4 0.00 0.00 0.00 35 1017.7
20260503173834 15 257 1.6 6.4 0.00 0.00 0.00 38 1017.8
20260503173330 15 219 3.2 11.3 0.00 0.00 0.00 37 1018.1
20260503172827 15 197 3.2 6.4 0.00 0.00 0.00 35 1018.4
20260503172325 15 166 8.0 17.7 0.00 0.00 0.00 37 1018.0
20260503171821 15 195 4.8 12.9 0.00 0.00 0.00 37 1018.3
20260503171318 15 183 4.8 6.4 0.00 0.00 0.00 37 1018.6
20260503170815 15 174 4.8 11.3 0.00 0.00 0.00 35 1018.7
20260503170311 15 200 3.2 11.3 0.00 0.00 0.00 37 1018.7
20260503150704 12 196 1.6 4.8 0.00 0.00 0.00 51 1019.9
20260503150200 11 203 4.8 6.4 0.00 0.00 0.00 52 1019.8
20260503140124 10 195 1.6 6.4 0.00 0.00 0.00 52 1019.8
20260503131054 8 197 3.2 6.4 0.00 0.00 0.00 60 1020.1
20260503130550 8 279 1.6 9.7 0.00 0.00 0.00 60 1020.1
20260503110441 3 178 0.0 1.6 0.00 0.00 0.00 76 1019.3
20260503090332 3 206 0.0 0.0 0.00 0.00 0.00 78 1018.9
20260503081300 2 22 0.0 0.0 0.00 0.00 0.00 86 1018.8
20260503080756 1 23 0.0 0.0 0.00 0.00 0.00 88 1018.8
20260503080253 1 23 0.0 0.0 0.00 0.00 0.00 89 1018.6
20260503072730 1 23 0.0 0.0 0.00 0.00 0.00 90 1018.7
20260503072226 1 23 0.0 0.0 0.00 0.00 0.00 91 1018.6
20260503071723 1 23 0.0 0.0 0.00 0.00 0.00 91 1018.7
20260503071220 1 23 0.0 0.0 0.00 0.00 0.00 89 1018.7
20260503070716 1 23 0.0 0.0 0.00 0.00 0.00 90 1018.8
20260503070215 1 23 0.0 0.0 0.00 0.00 0.00 90 1018.6
20260503060139 1 23 0.0 0.0 0.00 0.00 0.00 89 1019.0
20260503054626 1 23 0.0 0.0 0.00 0.00 0.00 89 1019.2
20260503054123 1 23 0.0 0.0 0.00 0.00 0.00 89 1019.2
20260503053621 1 23 0.0 0.0 0.00 0.00 0.00 89 1019.1
20260503053120 1 23 0.0 0.0 0.00 0.00 0.00 89 1019.0
20260503052615 1 23 0.0 0.0 0.00 0.00 0.00 88 1019.2
20260503052112 1 23 0.0 0.0 0.00 0.00 0.00 88 1019.1
20260503051607 1 23 0.0 0.0 0.00 0.00 0.00 88 1019.1
20260503051106 1 23 0.0 0.0 0.00 0.00 0.00 88 1019.0
20260503050601 2 23 0.0 0.0 0.00 0.00 0.00 89 1019.1
20260503050059 2 23 0.0 0.0 0.00 0.00 0.00 88 1019.1
20260503045555 2 23 0.0 0.0 0.00 0.00 0.00 88 1019.0
20260503045053 2 23 0.0 0.0 0.00 0.00 0.00 88 1019.3
20260503044549 2 23 0.0 0.0 0.00 0.00 0.00 88 1019.1
20260503044047 2 23 0.0 0.0 0.00 0.00 0.00 88 1019.0
20260503043543 2 23 0.0 0.0 0.00 0.00 0.00 87 1019.2
20260503043040 2 23 0.0 0.0 0.00 0.00 0.00 87 1019.1
20260503042537 2 23 0.0 0.0 0.00 0.00 0.00 87 1019.2
20260503042033 2 23 0.0 0.0 0.00 0.00 0.00 86 1019.4
20260503041530 2 23 0.0 0.0 0.00 0.00 0.00 86 1019.1
20260503041028 2 23 0.0 0.0 0.00 0.00 0.00 85 1019.0
20260503040525 2 23 0.0 0.0 0.00 0.00 0.00 85 1019.1
20260503040022 2 23 0.0 0.0 0.00 0.00 0.00 84 1019.2
20260503035519 2 23 0.0 0.0 0.00 0.00 0.00 84 1019.0
20260503035016 2 23 0.0 0.0 0.00 0.00 0.00 83 1019.0
20260503034514 2 23 0.0 0.0 0.00 0.00 0.00 84 1019.1
20260503034010 2 23 0.0 0.0 0.00 0.00 0.00 84 1019.0
20260503033508 3 23 0.0 0.0 0.00 0.00 0.00 84 1019.1
20260503033006 3 23 0.0 0.0 0.00 0.00 0.00 83 1019.1
20260503032504 3 23 0.0 0.0 0.00 0.00 0.00 82 1019.2
20260503032002 3 23 0.0 0.0 0.00 0.00 0.00 82 1019.1
20260503031459 3 23 0.0 0.0 0.00 0.00 0.00 81 1019.1
20260503030955 3 23 0.0 0.0 0.00 0.00 0.00 81 1019.1
20260503030452 3 23 0.0 0.0 0.00 0.00 0.00 80 1019.0
20260503025949 3 23 0.0 0.0 0.00 0.00 0.00 79 1019.2
20260503025446 3 23 0.0 0.0 0.00 0.00 0.00 80 1019.1
20260503024943 3 23 0.0 0.0 0.00 0.00 0.00 79 1019.2
20260503024439 3 23 0.0 0.0 0.00 0.00 0.00 78 1019.2
20260503023937 3 23 0.0 0.0 0.00 0.00 0.00 76 1019.2
20260503023434 3 23 0.0 0.0 0.00 0.00 0.00 77 1019.3
20260503022931 3 23 0.0 0.0 0.00 0.00 0.00 77 1019.3
20260503022426 4 23 0.0 0.0 0.00 0.00 0.00 76 1019.3
20260503021922 4 23 0.0 0.0 0.00 0.00 0.00 77 1019.1
20260503021418 4 23 0.0 0.0 0.00 0.00 0.00 77 1019.3
20260503020916 4 23 0.0 0.0 0.00 0.00 0.00 76 1019.0
20260503020413 4 23 0.0 0.0 0.00 0.00 0.00 77 1019.1
20260503015909 4 23 0.0 0.0 0.00 0.00 0.00 77 1019.1
20260503015407 5 23 0.0 0.0 0.00 0.00 0.00 74 1018.9
20260503014902 5 23 0.0 0.0 0.00 0.00 0.00 75 1019.0
20260503014400 5 23 0.0 0.0 0.00 0.00 0.00 74 1018.9
20260503013858 5 23 0.0 0.0 0.00 0.00 0.00 74 1018.7
20260503013354 5 23 0.0 0.0 0.00 0.00 0.00 74 1018.7
20260503012851 5 23 0.0 0.0 0.00 0.00 0.00 73 1018.8
20260503012349 6 23 0.0 0.0 0.00 0.00 0.00 71 1018.7
20260503011846 6 23 0.0 0.0 0.00 0.00 0.00 65 1018.6
20260503011343 6 23 0.0 0.0 0.00 0.00 0.00 65 1018.5
20260503010839 6 23 0.0 0.0 0.00 0.00 0.00 66 1018.5
20260503010336 7 23 0.0 0.0 0.00 0.00 0.00 65 1018.5
20260503005833 7 23 0.0 0.0 0.00 0.00 0.00 63 1018.3
20260503005331 7 23 0.0 0.0 0.00 0.00 0.00 57 1018.4
20260503004826 7 23 0.0 0.0 0.00 0.00 0.00 59 1018.5
20260503004324 8 23 0.0 0.0 0.00 0.00 0.00 54 1018.5
20260503003822 8 352 1.6 3.2 0.00 0.00 0.00 53 1018.3
20260503003318 8 322 3.2 6.4 0.00 0.00 0.00 51 1018.3
20260503002815 8 32 3.2 6.4 0.00 0.00 0.00 51 1018.4
20260503002312 8 302 3.2 6.4 0.00 0.00 0.00 50 1018.2
20260503001809 8 25 1.6 4.8 0.00 0.00 0.00 50 1018.2
20260503001305 8 3 4.8 6.4 0.00 0.00 0.00 49 1018.1
20260503000803 9 1 3.2 4.8 0.00 0.00 0.00 50 1018.0
20260503000300 9 36 0.0 3.2 0.00 0.00 0.00 49 1018.0
20260502235757 9 301 4.8 4.8 0.00 0.00 0.00 49 1017.9
20260502235254 10 354 4.8 6.4 0.00 0.00 0.00 48 1017.9
20260502234750 10 341 3.2 6.4 0.00 0.00 0.00 49 1017.7
20260502234248 10 3 6.4 14.5 0.00 0.00 0.00 47 1018.0
20260502233744 10 1 6.4 9.7 0.00 0.00 0.00 47 1017.9
20260502233241 10 318 6.4 6.4 0.00 0.00 0.00 46 1017.8
20260502232736 10 3 3.2 4.8 0.00 0.00 0.00 45 1017.9
20260502232234 10 29 4.8 11.3 0.00 0.00 0.00 45 1017.8
20260502231730 10 297 3.2 6.4 0.00 0.00 0.00 46 1017.6
20260502231228 10 43 1.6 6.4 0.00 0.00 0.00 46 1017.9
20260502230727 10 13 3.2 6.4 0.00 0.00 0.00 47 1017.6
20260502230225 10 336 1.6 4.8 0.00 0.00 0.00 46 1017.7
20260502225720 11 37 1.6 4.8 0.00 0.00 0.00 44 1017.6
20260502225218 10 139 1.6 6.4 0.00 0.00 0.00 44 1017.4
20260502224714 10 335 4.8 6.4 0.00 0.00 0.00 45 1017.7
20260502224211 10 318 6.4 9.7 0.00 0.00 0.00 43 1017.3
20260502223708 11 302 6.4 11.3 0.00 0.00 0.00 41 1017.6
20260502223206 11 335 3.2 6.4 0.00 0.00 0.00 45 1017.4
20260502222704 11 319 6.4 9.7 0.00 0.00 0.00 40 1017.5
20260502222200 11 299 3.2 6.4 0.00 0.00 0.00 42 1017.6
20260502221656 10 36 3.2 4.8 0.00 0.00 0.00 43 1017.4
20260502221153 10 328 4.8 6.4 0.00 0.00 0.00 43 1017.5
20260502220649 11 335 3.2 9.7 0.00 0.00 0.00 44 1017.4
20260502220145 10 309 4.8 9.7 0.00 0.00 0.00 44 1017.4
20260502215643 10 352 6.4 12.9 0.00 0.00 0.00 42 1017.4
20260502215139 11 325 6.4 9.7 0.00 0.00 0.00 41 1017.3
20260502214637 11 352 4.8 11.3 0.00 0.00 0.00 42 1017.3
20260502214134 11 336 6.4 9.7 0.00 0.00 0.00 42 1017.4
20260502213631 11 61 1.6 3.2 0.00 0.00 0.00 42 1017.3
20260502213128 11 31 3.2 6.4 0.00 0.00 0.00 43 1017.3
20260502212627 11 348 4.8 6.4 0.00 0.00 0.00 41 1017.2
20260502212125 11 17 4.8 9.7 0.00 0.00 0.00 42 1017.2
20260502211626 11 83 0.0 4.8 0.00 0.00 0.00 39 1017.3
20260502211123 10 311 3.2 4.8 0.00 0.00 0.00 41 1017.3
20260502210621 11 309 6.4 9.7 0.00 0.00 0.00 42 1017.2
20260502210117 11 315 6.4 9.7 0.00 0.00 0.00 43 1017.2
20260502205614 10 329 3.2 4.8 0.00 0.00 0.00 41 1017.2
20260502205111 10 307 3.2 6.4 0.00 0.00 0.00 41 1017.4
20260502204608 11 9 3.2 4.8 0.00 0.00 0.00 42 1017.2
20260502204105 11 336 1.6 9.7 0.00 0.00 0.00 42 1017.3
20260502203602 11 22 4.8 6.4 0.00 0.00 0.00 42 1017.1
20260502203100 11 284 3.2 4.8 0.00 0.00 0.00 41 1017.3
20260502202555 11 304 3.2 4.8 0.00 0.00 0.00 42 1017.4
20260502202054 11 0 3.2 9.7 0.00 0.00 0.00 39 1017.3
20260502201549 11 305 4.8 9.7 0.00 0.00 0.00 41 1017.4
20260502201046 11 328 6.4 12.9 0.00 0.00 0.00 39 1017.5
20260502200542 11 312 6.4 9.7 0.00 0.00 0.00 40 1017.4
20260502200040 11 48 1.6 11.3 0.00 0.00 0.00 40 1017.3
20260502195537 12 15 3.2 9.7 0.00 0.00 0.00 39 1017.4
20260502195033 13 301 3.2 11.3 0.00 0.00 0.00 41 1017.5
20260502194530 12 341 8.0 11.3 0.00 0.00 0.00 41 1017.3
20260502194026 12 315 3.2 6.4 0.00 0.00 0.00 40 1017.6
20260502193524 11 321 3.2 4.8 0.00 0.00 0.00 40 1017.6
20260502193020 11 336 6.4 9.7 0.00 0.00 0.00 39 1017.5
20260502192516 11 311 9.7 11.3 0.00 0.00 0.00 40 1017.7
20260502192014 11 20 8.0 12.9 0.00 0.00 0.00 40 1017.6
20260502191510 12 325 3.2 12.9 0.00 0.00 0.00 39 1017.5
20260502191008 11 349 4.8 6.4 0.00 0.00 0.00 41 1017.6
20260502190505 12 312 8.0 11.3 0.00 0.00 0.00 40 1017.7
20260502190001 11 341 3.2 6.4 0.00 0.00 0.00 42 1018.0
20260502185457 11 324 1.6 3.2 0.00 0.00 0.00 48 1017.8